Shreveport, LA

2:48 AM CST on February 09, 2016 (GMT -0600)
Barksdale Air Force Base

Weather History for KBAD - June, 2013

Change the Weather History Date:

Sunday, June 30, 2013

  Actual Average (KSHV) Record (KSHV)
Temperature  
Mean Temperature 78 °F 82 °F  
Max Temperature 89 °F 92 °F 102 °F (1917)
Min Temperature 67 °F 72 °F 61 °F (1923)
Degree Days  
Heating Degree Days 0 0  
Month to date heating degree days 0  
Since 1 June heating degree days 0  
Since 1 July heating degree days 2226  
Cooling Degree Days 13 17  
Month to date cooling degree days 444  
Year to date cooling degree days 842  
Since 1 June cooling degree days 444  
Growing Degree Days 28 (Base 50)    
Moisture  
Dew Point 58 °F    
Average Humidity 49    
Maximum Humidity 78    
Minimum Humidity 29    
Precipitation  
Precipitation 0.00 in 0.17 in 2.67 in (1989)
Month to date precipitation 5.40  
Year to date precipitation 27.61  
Snow  
Snow 0.00 in - - ()
Month to date snowfall  
Since 1 June snowfall  
Since 1 July snowfall  
Snow Depth -    
Sea Level Pressure  
Sea Level Pressure 29.83 in    
Wind  
Wind Speed 7 mph (North)    
Max Wind Speed 15 mph    
Max Gust Speed 28 mph    
Visibility 10 miles    
Events      
T = Trace of Precipitation, MM = Missing Value Source: NWS Daily Summary

Daily Weather History Graph

Daily Weather History Graph

Search for Another Location

Airport or City:

Trip Planner

Search our weather history database for the weather conditions in past years. The results will help you decide how hot, cold, wet, or windy it might be!

Date:

Astronomy

Jun. 30, 2013 Rise Set
Actual Time 6:10 AM CDT 8:26 PM CDT
Civil Twilight 5:42 AM CDT 8:54 PM CDT
Nautical Twilight 5:07 AM CDT 9:29 PM CDT
Astronomical Twilight 4:29 AM CDT 10:06 PM CDT
Moon 12:53 AM CDT (6/30) 1:55 PM CDT (6/30)
Length of Visible Light 15h 12m
Length of Day
14h 15m
Last Quarter, 45% of the Moon is Illuminated
Jun 30
Last Quarter
Jul 8
New
Jul 15
First Quarter
Jul 22
Full
Jul 29
Last Quarter

Hourly Weather History & Observations

Time (CDT) Temp. Heat Index Dew Point Humidity Pressure Visibility Wind Dir Wind Speed Gust Speed Precip Events Conditions
12:58 AM 73.4 °F - 57.7 °F 58% 29.81 in 10.0 mi NNW 4.6 mph - N/A   Clear
1:58 AM 71.2 °F - 58.5 °F 64% 29.78 in 10.0 mi North 2.3 mph - N/A   Clear
2:58 AM 67.6 °F - 60.1 °F 77% 29.80 in 10.0 mi NNW 1.2 mph - N/A   Clear
3:58 AM 67.1 °F - 59.9 °F 78% 29.79 in 10.0 mi NNW 2.3 mph - N/A   Clear
4:58 AM 68.0 °F - 59.9 °F 75% 29.79 in 10.0 mi NNW 2.3 mph - N/A   Clear
5:58 AM 68.5 °F - 60.8 °F 76% 29.80 in 10.0 mi North 3.5 mph - N/A   Clear
6:58 AM 68.7 °F - 61.2 °F 77% 29.82 in 10.0 mi NNW 6.9 mph - N/A   Clear
7:58 AM 73.6 °F - 61.7 °F 66% 29.83 in 10.0 mi NNW 5.8 mph - N/A   Partly Cloudy
8:58 AM 79.0 °F - 60.4 °F 53% 29.83 in 10.0 mi North 8.1 mph - N/A   Clear
9:58 AM 82.8 °F 83.0 °F 60.1 °F 46% 29.85 in 10.0 mi NNW 10.4 mph - N/A   Clear
10:58 AM 84.9 °F 84.1 °F 57.2 °F 39% 29.85 in 10.0 mi NNW 11.5 mph - N/A   Clear
11:58 AM 86.2 °F 85.2 °F 57.9 °F 38% 29.86 in 10.0 mi NNW 15.0 mph - N/A   Partly Cloudy
12:58 PM 87.6 °F 86.7 °F 58.5 °F 37% 29.83 in 10.0 mi NW 12.7 mph 27.6 mph N/A   Partly Cloudy
1:45 PM 87.8 °F 86.1 °F 55.4 °F 33% 29.83 in 10.0 mi NW 13.8 mph 21.9 mph N/A   Clear
1:58 PM 88.3 °F 86.7 °F 55.8 °F 33% 29.83 in 10.0 mi NNW 13.8 mph - N/A   Clear
2:43 PM 89.6 °F 87.3 °F 53.6 °F 29% 29.82 in 10.0 mi North 15.0 mph 23.0 mph N/A   Partly Cloudy
2:55 PM 89.6 °F 87.7 °F 55.4 °F 31% 29.82 in 10.0 mi North 15.0 mph 25.3 mph N/A   Partly Cloudy
2:56 PM 87.8 °F 86.1 °F 55.4 °F 33% 29.82 in 10.0 mi North 11.5 mph 25.3 mph N/A   Partly Cloudy
2:58 PM 88.7 °F 86.9 °F 55.2 °F 32% 29.83 in 10.0 mi North 13.8 mph 25.3 mph N/A   Partly Cloudy
3:06 PM 89.6 °F 87.7 °F 55.4 °F 31% 29.82 in 10.0 mi NW 12.7 mph 21.9 mph N/A   Clear
3:58 PM 88.5 °F 86.7 °F 55.2 °F 32% 29.83 in 10.0 mi NNW 15.0 mph 19.6 mph N/A   Clear
4:58 PM 88.0 °F 86.1 °F 54.9 °F 32% 29.83 in 10.0 mi North 11.5 mph - N/A   Clear
5:58 PM 86.9 °F 85.6 °F 57.0 °F 36% 29.83 in 10.0 mi North 10.4 mph - N/A   Mostly Cloudy
6:58 PM 85.3 °F 84.6 °F 58.3 °F 40% 29.83 in 10.0 mi North 8.1 mph - N/A   Mostly Cloudy
7:58 PM 81.3 °F 81.4 °F 58.1 °F 45% 29.84 in 10.0 mi North 5.8 mph - N/A   Clear
8:58 PM 77.0 °F - 58.8 °F 53% 29.85 in 10.0 mi North 4.6 mph - N/A   Clear
9:58 PM 75.0 °F - 59.5 °F 58% 29.87 in 10.0 mi NNE 4.6 mph - N/A   Clear
10:58 PM 72.9 °F - 59.2 °F 62% 29.88 in 10.0 mi NNE 4.6 mph - N/A   Clear
11:58 PM 71.1 °F - 59.4 °F 66% 29.89 in 10.0 mi NNE 4.6 mph - N/A   Clear